| time (UTC) | temp F | wind direction | speed knots | gust knots | rain 1hr in | rain 24hr in | rain mn in | humidity % | barometer mb |
| 20260506094504 | 52 | 205 | 0.9 | 2.6 | 0.00 | 0.00 | 0.00 | 60 | 1019.1 |
| 20260506094003 | 52 | 210 | 0.0 | 4.3 | 0.00 | 0.00 | 0.00 | 58 | 1019.0 |
| 20260506093004 | 51 | 167 | 0.9 | 4.3 | 0.00 | 0.00 | 0.00 | 58 | 1019.0 |
| 20260506092004 | 51 | 170 | 1.7 | 2.6 | 0.00 | 0.00 | 0.00 | 63 | 1019.3 |
| 20260506091504 | 50 | 262 | 0.9 | 5.2 | 0.00 | 0.00 | 0.00 | 63 | 1019.3 |
| 20260506090504 | 50 | 146 | 1.7 | 5.2 | 0.00 | 0.00 | 0.00 | 63 | 1019.3 |
| 20260506090004 | 50 | 340 | 0.9 | 2.6 | 0.00 | 0.00 | 0.00 | 65 | 1019.3 |
| 20260506085504 | 50 | 77 | 0.9 | 5.2 | 0.00 | 0.00 | 0.00 | 64 | 1019.3 |
| 20260506085004 | 50 | 54 | 0.9 | 5.2 | 0.00 | 0.00 | 0.00 | 65 | 1019.3 |
| 20260506084503 | 50 | 186 | 1.7 | 5.2 | 0.00 | 0.00 | 0.00 | 66 | 1019.3 |
| 20260506084003 | 49 | 199 | 1.7 | 5.2 | 0.00 | 0.00 | 0.00 | 64 | 1019.4 |
| 20260506083503 | 49 | 259 | 0.9 | 4.3 | 0.00 | 0.00 | 0.00 | 67 | 1019.7 |
| 20260506083003 | 49 | 102 | 0.9 | 4.3 | 0.00 | 0.00 | 0.00 | 64 | 1019.3 |
| 20260506081503 | 48 | 227 | 0.0 | 2.6 | 0.00 | 0.00 | 0.00 | 68 | 1019.7 |
| 20260506081003 | 47 | 210 | 0.9 | 2.6 | 0.00 | 0.00 | 0.00 | 66 | 1019.7 |
| 20260506080505 | 47 | 185 | 0.9 | 2.6 | 0.00 | 0.00 | 0.00 | 69 | 1019.7 |
| 20260506073504 | 45 | 215 | 0.9 | 1.7 | 0.00 | 0.00 | 0.00 | 76 | 1019.8 |
| 20260506073004 | 45 | 218 | 0.9 | 1.7 | 0.00 | 0.00 | 0.00 | 77 | 1019.7 |
| 20260506072003 | 44 | 199 | 0.0 | 1.7 | 0.00 | 0.00 | 0.00 | 80 | 1020.0 |
| 20260506071504 | 43 | 220 | 0.0 | 1.7 | 0.00 | 0.00 | 0.00 | 81 | 1019.8 |
| 20260506070504 | 42 | 186 | 0.0 | 1.7 | 0.00 | 0.00 | 0.00 | 83 | 1020.0 |
| 20260506062003 | 38 | 180 | 1.7 | 1.7 | 0.00 | 0.00 | 0.00 | 91 | 1019.7 |
| 20260506061504 | 38 | 187 | 0.9 | 1.7 | 0.00 | 0.00 | 0.00 | 92 | 1019.7 |
| 20260506061004 | 38 | 203 | 0.0 | 1.7 | 0.00 | 0.00 | 0.00 | 92 | 1020.0 |
| 20260506060504 | 37 | 220 | 0.0 | 0.9 | 0.00 | 0.00 | 0.00 | 93 | 1019.7 |
| 20260506051004 | 34 | 201 | 0.9 | 1.7 | 0.00 | 0.00 | 0.00 | 93 | 1020.0 |
| 20260506045003 | 36 | 199 | 0.0 | 0.9 | 0.00 | 0.00 | 0.00 | 94 | 1020.0 |
| 20260506044003 | 35 | 222 | 0.0 | 0.9 | 0.00 | 0.00 | 0.00 | 94 | 1020.0 |
| 20260506043003 | 35 | 219 | 0.0 | 0.9 | 0.00 | 0.00 | 0.00 | 94 | 1020.2 |
| 20260506042504 | 35 | 220 | 0.0 | 0.9 | 0.00 | 0.00 | 0.00 | 94 | 1020.0 |
| 20260506042003 | 35 | 224 | 0.0 | 0.9 | 0.00 | 0.00 | 0.00 | 93 | 1020.0 |
| 20260506041504 | 35 | 195 | 0.0 | 0.9 | 0.00 | 0.00 | 0.00 | 93 | 1020.0 |
| 20260506041003 | 35 | 199 | 0.9 | 0.9 | 0.00 | 0.00 | 0.00 | 93 | 1020.3 |
| 20260506040004 | 35 | 222 | 0.0 | 0.0 | 0.00 | 0.00 | 0.00 | 93 | 1020.1 |
| 20260506034503 | 36 | 198 | 0.9 | 1.7 | 0.00 | 0.00 | 0.00 | 93 | 1020.3 |
| 20260506034003 | 36 | 205 | 0.9 | 1.7 | 0.00 | 0.00 | 0.00 | 93 | 1020.3 |
| 20260506033004 | 36 | 202 | 0.9 | 1.7 | 0.00 | 0.00 | 0.00 | 93 | 1020.7 |
| 20260506032503 | 36 | 167 | 0.9 | 1.7 | 0.00 | 0.00 | 0.00 | 93 | 1020.6 |
| 20260506032004 | 37 | 178 | 0.9 | 1.7 | 0.00 | 0.00 | 0.00 | 93 | 1020.3 |
| 20260506031503 | 36 | 212 | 0.0 | 0.0 | 0.00 | 0.00 | 0.00 | 93 | 1020.3 |
| 20260506030503 | 37 | 231 | 0.0 | 1.7 | 0.00 | 0.00 | 0.00 | 93 | 1020.6 |
| 20260506030004 | 37 | 221 | 0.0 | 1.7 | 0.00 | 0.00 | 0.00 | 93 | 1020.3 |
| 20260506025503 | 37 | 203 | 0.0 | 1.7 | 0.00 | 0.00 | 0.00 | 93 | 1020.7 |
| 20260506025004 | 37 | 211 | 0.9 | 1.7 | 0.00 | 0.00 | 0.00 | 93 | 1020.4 |
| 20260506024504 | 37 | 189 | 0.9 | 1.7 | 0.00 | 0.00 | 0.00 | 93 | 1020.3 |
| 20260506024004 | 37 | 186 | 0.9 | 1.7 | 0.00 | 0.00 | 0.00 | 93 | 1020.4 |
| 20260506023504 | 37 | 221 | 0.9 | 2.6 | 0.00 | 0.00 | 0.00 | 93 | 1020.7 |
| 20260506023004 | 37 | 212 | 0.9 | 2.6 | 0.00 | 0.00 | 0.00 | 93 | 1020.7 |
| 20260506022503 | 38 | 182 | 1.7 | 1.7 | 0.00 | 0.00 | 0.00 | 93 | 1020.3 |
| 20260506022004 | 38 | 206 | 0.9 | 1.7 | 0.00 | 0.00 | 0.00 | 93 | 1020.7 |
| 20260506021504 | 37 | 185 | 0.0 | 1.7 | 0.00 | 0.00 | 0.00 | 93 | 1020.6 |
| 20260506021004 | 37 | 218 | 0.0 | 1.7 | 0.00 | 0.00 | 0.00 | 93 | 1020.7 |
| 20260506020503 | 37 | 222 | 0.0 | 1.7 | 0.00 | 0.00 | 0.00 | 92 | 1020.7 |
| 20260506020004 | 38 | 209 | 0.0 | 1.7 | 0.00 | 0.00 | 0.00 | 92 | 1020.3 |
| 20260506015504 | 38 | 187 | 0.9 | 1.7 | 0.00 | 0.00 | 0.00 | 92 | 1020.7 |
| 20260506015004 | 38 | 203 | 0.0 | 1.7 | 0.00 | 0.00 | 0.00 | 92 | 1020.7 |
| 20260506014504 | 38 | 214 | 0.0 | 2.6 | 0.00 | 0.00 | 0.00 | 92 | 1020.7 |
| 20260506014003 | 39 | 192 | 0.9 | 2.6 | 0.00 | 0.00 | 0.00 | 91 | 1020.7 |
| 20260506013503 | 39 | 204 | 0.9 | 1.7 | 0.00 | 0.00 | 0.00 | 91 | 1020.7 |
| 20260506013004 | 39 | 208 | 0.9 | 2.6 | 0.00 | 0.00 | 0.00 | 91 | 1020.7 |
| 20260506012504 | 39 | 220 | 0.0 | 2.6 | 0.00 | 0.00 | 0.00 | 91 | 1020.7 |
| 20260506012003 | 39 | 196 | 0.9 | 2.6 | 0.00 | 0.01 | 0.00 | 90 | 1020.7 |
| 20260506011503 | 39 | 189 | 1.7 | 2.6 | 0.00 | 0.01 | 0.00 | 90 | 1020.7 |
| 20260506011004 | 39 | 208 | 0.9 | 1.7 | 0.00 | 0.01 | 0.00 | 89 | 1020.9 |
| 20260506010504 | 40 | 190 | 0.9 | 1.7 | 0.00 | 0.02 | 0.00 | 88 | 1020.7 |
| 20260506005004 | 41 | 211 | 0.0 | 0.9 | 0.00 | 0.02 | 0.00 | 86 | 1020.9 |
| 20260506004505 | 41 | 202 | 0.0 | 0.9 | 0.00 | 0.02 | 0.00 | 87 | 1021.0 |
| 20260506004004 | 41 | 221 | 0.0 | 0.0 | 0.00 | 0.02 | 0.00 | 87 | 1021.0 |
| 20260506003004 | 41 | 225 | 0.0 | 0.9 | 0.00 | 0.02 | 0.00 | 87 | 1021.0 |
| 20260506002504 | 41 | 223 | 0.0 | 0.9 | 0.00 | 0.02 | 0.00 | 88 | 1021.1 |
| 20260506002003 | 41 | 217 | 0.0 | 0.9 | 0.00 | 0.02 | 0.00 | 87 | 1021.0 |
| 20260506001503 | 42 | 218 | 0.9 | 0.9 | 0.00 | 0.02 | 0.00 | 87 | 1021.1 |
| 20260506001003 | 42 | 195 | 0.9 | 0.9 | 0.00 | 0.02 | 0.00 | 86 | 1021.3 |
| 20260506000504 | 42 | 215 | 0.0 | 0.9 | 0.00 | 0.02 | 0.00 | 86 | 1021.1 |
| 20260506000004 | 43 | 218 | 0.0 | 0.9 | 0.00 | 0.02 | 0.00 | 86 | 1021.2 |
| 20260505235504 | 43 | 197 | 0.0 | 0.9 | 0.00 | 0.02 | 0.00 | 85 | 1021.1 |
| 20260505234504 | 43 | 228 | 0.0 | 0.9 | 0.00 | 0.02 | 0.00 | 85 | 1021.3 |
| 20260505234005 | 43 | 203 | 0.0 | 0.9 | 0.00 | 0.02 | 0.00 | 85 | 1021.3 |
| 20260505233504 | 43 | 227 | 0.0 | 0.9 | 0.00 | 0.02 | 0.00 | 86 | 1021.3 |
| 20260505233004 | 43 | 222 | 0.0 | 0.9 | 0.00 | 0.02 | 0.00 | 86 | 1021.3 |
| 20260505232504 | 42 | 199 | 0.0 | 0.9 | 0.00 | 0.02 | 0.00 | 86 | 1021.3 |
| 20260505232003 | 43 | 254 | 0.0 | 0.9 | 0.00 | 0.02 | 0.00 | 86 | 1021.1 |
| 20260505231503 | 42 | 286 | 0.0 | 0.9 | 0.00 | 0.02 | 0.00 | 86 | 1021.1 |
| 20260505230504 | 43 | 268 | 0.0 | 0.9 | 0.00 | 0.02 | 0.00 | 86 | 1021.3 |
| 20260505230003 | 42 | 289 | 0.0 | 0.9 | 0.00 | 0.02 | 0.00 | 86 | 1021.3 |
| 20260505225504 | 42 | 277 | 0.0 | 0.9 | 0.00 | 0.02 | 0.02 | 85 | 1021.3 |
| 20260505225004 | 42 | 256 | 0.0 | 0.9 | 0.00 | 0.02 | 0.02 | 85 | 1021.3 |
| 20260505224504 | 43 | 259 | 0.0 | 0.9 | 0.00 | 0.02 | 0.02 | 85 | 1021.3 |
| 20260505224004 | 43 | 259 | 0.0 | 0.0 | 0.00 | 0.02 | 0.02 | 84 | 1021.3 |
| 20260505223503 | 43 | 260 | 0.0 | 0.0 | 0.00 | 0.02 | 0.02 | 84 | 1021.3 |
| 20260505222504 | 43 | 260 | 0.0 | 0.9 | 0.00 | 0.02 | 0.02 | 84 | 1021.3 |
| 20260505222003 | 43 | 260 | 0.0 | 0.9 | 0.00 | 0.02 | 0.02 | 84 | 1021.3 |
| 20260505221504 | 44 | 265 | 0.0 | 0.9 | 0.00 | 0.02 | 0.02 | 83 | 1021.3 |
| 20260505221004 | 44 | 277 | 0.0 | 0.9 | 0.00 | 0.02 | 0.02 | 83 | 1021.3 |
| 20260505220503 | 44 | 246 | 0.0 | 0.9 | 0.00 | 0.02 | 0.02 | 83 | 1021.4 |
| 20260505220004 | 44 | 239 | 0.0 | 4.3 | 0.00 | 0.02 | 0.02 | 82 | 1021.4 |
| 20260505215003 | 44 | 23 | 1.7 | 4.3 | 0.00 | 0.02 | 0.02 | 82 | 1021.7 |
| 20260505214503 | 44 | 281 | 0.0 | 2.6 | 0.00 | 0.02 | 0.02 | 81 | 1021.6 |
| 20260505214004 | 44 | 303 | 0.9 | 2.6 | 0.00 | 0.02 | 0.02 | 80 | 1021.3 |
| 20260505213503 | 44 | 344 | 0.9 | 2.6 | 0.00 | 0.02 | 0.02 | 79 | 1021.3 |
| 20260505212504 | 45 | 247 | 0.0 | 0.9 | 0.00 | 0.02 | 0.02 | 78 | 1021.3 |
| 20260505212004 | 45 | 274 | 0.0 | 0.9 | 0.00 | 0.02 | 0.02 | 78 | 1021.7 |
| 20260505211004 | 45 | 300 | 0.0 | 0.9 | 0.00 | 0.02 | 0.02 | 78 | 1021.5 |
| 20260505210503 | 45 | 265 | 0.0 | 1.7 | 0.00 | 0.02 | 0.02 | 77 | 1021.3 |
| 20260505205504 | 45 | 262 | 0.0 | 1.7 | 0.00 | 0.02 | 0.02 | 77 | 1021.3 |
| 20260505205004 | 45 | 279 | 0.0 | 1.7 | 0.00 | 0.02 | 0.02 | 77 | 1021.3 |
| 20260505204503 | 45 | 268 | 0.0 | 0.9 | 0.00 | 0.02 | 0.02 | 76 | 1021.3 |
| 20260505204004 | 46 | 276 | 0.0 | 1.7 | 0.00 | 0.02 | 0.02 | 76 | 1021.3 |
| 20260505203504 | 46 | 283 | 0.0 | 4.3 | 0.00 | 0.02 | 0.02 | 76 | 1021.3 |
| 20260505203004 | 46 | 300 | 0.9 | 4.3 | 0.00 | 0.02 | 0.02 | 76 | 1021.3 |
| 20260505202503 | 47 | 293 | 1.7 | 4.3 | 0.00 | 0.02 | 0.02 | 75 | 1021.3 |
| 20260505202004 | 47 | 340 | 0.9 | 4.3 | 0.00 | 0.02 | 0.02 | 75 | 1021.3 |
| 20260505201504 | 47 | 10 | 1.7 | 4.3 | 0.00 | 0.02 | 0.02 | 75 | 1021.3 |
| 20260505201003 | 47 | 327 | 0.9 | 4.3 | 0.00 | 0.02 | 0.02 | 74 | 1021.3 |
| 20260505200504 | 48 | 354 | 0.9 | 4.3 | 0.00 | 0.02 | 0.02 | 74 | 1021.3 |
| 20260505200003 | 48 | 3 | 1.7 | 4.3 | 0.00 | 0.02 | 0.02 | 73 | 1021.3 |
| 20260505195503 | 48 | 321 | 1.7 | 4.3 | 0.00 | 0.02 | 0.02 | 73 | 1021.3 |
| 20260505195003 | 49 | 338 | 1.7 | 6.1 | 0.00 | 0.02 | 0.02 | 72 | 1021.3 |
| 20260505194503 | 49 | 8 | 0.9 | 6.1 | 0.00 | 0.02 | 0.02 | 72 | 1021.3 |
| 20260505194004 | 49 | 341 | 2.6 | 6.1 | 0.00 | 0.02 | 0.02 | 71 | 1021.3 |
| 20260505193503 | 50 | 314 | 2.6 | 7.0 | 0.00 | 0.02 | 0.02 | 71 | 1021.3 |
| 20260505193004 | 50 | 350 | 1.7 | 7.0 | 0.00 | 0.02 | 0.02 | 71 | 1021.3 |
| 20260505192503 | 50 | 358 | 1.7 | 7.0 | 0.00 | 0.02 | 0.02 | 70 | 1021.3 |
| 20260505192004 | 50 | 353 | 2.6 | 7.0 | 0.00 | 0.02 | 0.02 | 70 | 1021.1 |
| 20260505191504 | 51 | 348 | 1.7 | 7.0 | 0.00 | 0.02 | 0.02 | 70 | 1021.3 |
| 20260505191004 | 51 | 4 | 2.6 | 7.0 | 0.00 | 0.02 | 0.02 | 70 | 1021.1 |
| 20260505190004 | 52 | 38 | 1.7 | 6.1 | 0.00 | 0.02 | 0.02 | 69 | 1021.3 |
| 20260505185504 | 52 | 349 | 1.7 | 6.1 | 0.00 | 0.02 | 0.02 | 68 | 1021.0 |
| 20260505185003 | 51 | 29 | 2.6 | 6.1 | 0.00 | 0.02 | 0.02 | 68 | 1021.3 |
| 20260505184004 | 51 | 346 | 1.7 | 7.0 | 0.00 | 0.02 | 0.02 | 69 | 1021.1 |
| 20260505182503 | 51 | 45 | 2.6 | 8.7 | 0.00 | 0.02 | 0.02 | 67 | 1021.0 |
| 20260505182004 | 52 | 348 | 0.9 | 8.7 | 0.00 | 0.02 | 0.02 | 68 | 1021.0 |
| 20260505181504 | 52 | 276 | 3.5 | 7.0 | 0.00 | 0.02 | 0.02 | 67 | 1021.0 |
| 20260505181003 | 52 | 337 | 2.6 | 7.0 | 0.00 | 0.02 | 0.02 | 66 | 1021.0 |
| 20260505180503 | 53 | 27 | 3.5 | 7.0 | 0.00 | 0.02 | 0.02 | 66 | 1021.3 |
| 20260505180004 | 53 | 345 | 2.6 | 7.0 | 0.00 | 0.02 | 0.02 | 66 | 1021.0 |
| 20260505175003 | 52 | 307 | 2.6 | 7.8 | 0.00 | 0.02 | 0.02 | 68 | 1021.0 |
| 20260505174009 | 52 | 339 | 1.7 | 7.8 | 0.00 | 0.02 | 0.02 | 67 | 1021.1 |
| 20260505173504 | 52 | 358 | 4.3 | 8.7 | 0.00 | 0.02 | 0.02 | 67 | 1021.3 |
| 20260505173004 | 53 | 312 | 1.7 | 8.7 | 0.00 | 0.02 | 0.02 | 67 | 1021.0 |
| 20260505172504 | 53 | 247 | 1.7 | 7.0 | 0.00 | 0.02 | 0.02 | 66 | 1021.0 |
| 20260505172004 | 53 | 84 | 2.6 | 7.0 | 0.00 | 0.02 | 0.02 | 62 | 1021.0 |
| 20260505170503 | 54 | 40 | 1.7 | 7.8 | 0.00 | 0.02 | 0.02 | 62 | 1021.0 |
| 20260505170003 | 55 | 303 | 1.7 | 7.0 | 0.00 | 0.02 | 0.02 | 61 | 1021.0 |
| 20260505165504 | 54 | 31 | 1.7 | 7.0 | 0.00 | 0.02 | 0.02 | 62 | 1021.0 |
| 20260505165003 | 53 | 335 | 2.6 | 6.1 | 0.00 | 0.02 | 0.02 | 63 | 1021.0 |
| 20260505164504 | 53 | 311 | 1.7 | 5.2 | 0.00 | 0.02 | 0.02 | 64 | 1021.0 |
| 20260505163504 | 54 | 66 | 1.7 | 7.0 | 0.00 | 0.02 | 0.02 | 64 | 1021.0 |
| 20260505163004 | 54 | 337 | 1.7 | 7.0 | 0.00 | 0.02 | 0.02 | 63 | 1021.0 |
| 20260505162504 | 55 | 25 | 2.6 | 7.0 | 0.00 | 0.02 | 0.02 | 61 | 1021.3 |
| 20260505162004 | 55 | 293 | 2.6 | 7.0 | 0.00 | 0.02 | 0.02 | 59 | 1021.0 |
| 20260505161504 | 55 | 322 | 3.5 | 6.1 | 0.00 | 0.02 | 0.02 | 59 | 1021.0 |
| 20260505161004 | 55 | 12 | 1.7 | 6.1 | 0.00 | 0.02 | 0.02 | 61 | 1021.0 |
| 20260505160503 | 56 | 325 | 2.6 | 7.0 | 0.00 | 0.02 | 0.02 | 58 | 1020.8 |
| 20260505152503 | 57 | 207 | 1.7 | 6.1 | 0.00 | 0.02 | 0.02 | 55 | 1021.1 |
| 20260505151503 | 59 | 295 | 3.5 | 7.0 | 0.00 | 0.02 | 0.02 | 56 | 1021.1 |
| 20260505151004 | 60 | 263 | 3.5 | 7.0 | 0.00 | 0.02 | 0.02 | 54 | 1021.0 |
| 20260505150504 | 58 | 296 | 3.5 | 7.0 | 0.00 | 0.02 | 0.02 | 55 | 1021.2 |
| 20260505140504 | 55 | 316 | 2.6 | 7.0 | 0.00 | 0.02 | 0.02 | 62 | 1021.3 |
| 20260505125003 | 55 | 293 | 2.6 | 7.8 | 0.00 | 0.02 | 0.02 | 63 | 1021.3 |
| 20260505124504 | 54 | 310 | 1.7 | 7.8 | 0.00 | 0.02 | 0.02 | 61 | 1021.3 |
| 20260505123504 | 55 | 354 | 1.7 | 7.8 | 0.00 | 0.02 | 0.02 | 64 | 1021.3 |
| 20260505122004 | 55 | 22 | 2.6 | 7.8 | 0.00 | 0.02 | 0.02 | 65 | 1021.7 |
| 20260505120503 | 54 | 350 | 2.6 | 7.8 | 0.00 | 0.02 | 0.02 | 65 | 1021.7 |
| 20260505120004 | 54 | 343 | 3.5 | 7.8 | 0.00 | 0.02 | 0.02 | 69 | 1021.7 |
| 20260505115503 | 53 | 353 | 4.3 | 7.0 | 0.00 | 0.02 | 0.02 | 69 | 1021.7 |
| 20260505115003 | 54 | 344 | 2.6 | 6.1 | 0.00 | 0.02 | 0.02 | 70 | 1021.8 |
| 20260505114504 | 53 | 14 | 3.5 | 7.8 | 0.00 | 0.02 | 0.02 | 70 | 1021.7 |
| 20260505114003 | 52 | 342 | 4.3 | 7.8 | 0.00 | 0.02 | 0.02 | 70 | 1021.7 |
| 20260505113504 | 52 | 350 | 2.6 | 7.8 | 0.00 | 0.02 | 0.02 | 71 | 1021.7 |
| 20260505112503 | 53 | 343 | 2.6 | 6.1 | 0.00 | 0.02 | 0.02 | 73 | 1021.7 |
| 20260505111003 | 53 | 330 | 0.9 | 6.1 | 0.00 | 0.02 | 0.02 | 72 | 1021.7 |
| 20260505110503 | 54 | 91 | 1.7 | 7.0 | 0.00 | 0.02 | 0.02 | 74 | 1021.8 |
| 20260505102004 | 52 | 64 | 0.9 | 5.2 | 0.00 | 0.02 | 0.02 | 80 | 1021.9 |
| 20260505101504 | 51 | 22 | 1.7 | 6.1 | 0.00 | 0.02 | 0.02 | 80 | 1022.0 |
| 20260505101003 | 51 | 52 | 1.7 | 6.1 | 0.00 | 0.02 | 0.02 | 79 | 1022.0 |
| 20260505100504 | 52 | 17 | 2.6 | 7.0 | 0.00 | 0.02 | 0.02 | 79 | 1022.0 |
| 20260505100004 | 51 | 348 | 1.7 | 10.4 | 0.00 | 0.02 | 0.02 | 79 | 1022.0 |
| 20260505095503 | 51 | 329 | 2.6 | 10.4 | 0.00 | 0.02 | 0.02 | 80 | 1022.0 |
| 20260505095003 | 51 | 66 | 4.3 | 7.8 | 0.00 | 0.02 | 0.02 | 80 | 1022.0 |